Regional Weather Roundup
Issued by NWS

Home | Current Version | Previous Version | Graphics & Text | Print | Product List | Glossary On
Versions: 1 2 3 4 5 6 7 8 9 10 11 12 13 14 15 16 17 18 19 20 21 22 23 24 25 26 27 28 29 30 31 32 33 34 35 36 37 38 39 40 41 42 43 44 45 46 47 48 49 50
971
ASUS45 KABQ 231610
RWRNM
NEW MEXICO REGIONAL WEATHER ROUNDUP
NATIONAL WEATHER SERVICE ALBUQUERQUE NM
1000 AM MDT MON APR 23 2018

NOTE: "FAIR" MEANS FEW OR NO CLOUDS BELOW 12,000 FEET AGL WITH NO
       SIGNIFICANT WEATHER OR OBSTRUCTIONS TO VISION.

      THIS PRODUCT IS RELEASED AS TWO VERSIONS.  ONE VERSION NEAR
      THE TOP OF THE HOUR CONTAINING PRELIMINARY DATA FROM ALBUQUERQUE
      AND OTHER STATIONS.  A FINAL VERSION WITH ADDITIONAL DATA IS
      ISSUED ABOUT 10 MINUTES AFTER THE HOUR.

NMZ501-503-504-510>518-231700-
NORTHWEST PLATEAU/NORTHCENTRAL MOUNTAINS

CITY           SKY/WX    TMP DP  RH WIND       PRES   REMARKS
FARMINGTON     FAIR      60  24  25 SE7       30.14S
LOS ALAMOS     FAIR      55  32  42 CALM      30.25S
SANTA FE       FAIR      58  33  39 VRB3      30.21S
TAOS           FAIR      56  28  34 W10       30.26F
ANGEL FIRE     FAIR      55  26  33 W18       30.27S

$$
NMZ402-403-502-505>509-231700-
WESTCENTRAL MOUNTAINS/SOUTHWEST MOUNTAINS

CITY           SKY/WX    TMP DP  RH WIND       PRES   REMARKS
GALLUP         FAIR      62  20  19 VRB6      30.21S
GRANTS         FAIR      59  19  20 SE6       30.23F
SILVER CITY    FAIR      68  32  26 SE7       30.18S

$$
NMZ407-409-411-412-231700-
SOUTHERN DESERTS

CITY           SKY/WX    TMP DP  RH WIND       PRES   REMARKS
DEMING         FAIR      71  38  29 NE7       30.15R
LAS CRUCES     FAIR      72  32  23 SE6       30.17R
HOLLOMAN AFB   FAIR      72  32  23 W6        30.18R
ALAMOGORDO     FAIR      68  28  22 SW6       30.16S
T OR C         FAIR      70  29  21 S6        30.16S

$$
NMZ519>523-231700-
CENTRAL VALLEYS/CENTRAL HIGHLANDS

CITY           SKY/WX    TMP DP  RH WIND       PRES   REMARKS
ALBUQUERQUE    FAIR      61  30  31 S6        30.19S
DOUBLE EAGLE   SUNNY     61  34  36 VRB6      30.21S
MORIARTY ARPT  FAIR      55  36  49 S3        30.23S
CLINES CORNERS FAIR      58  31  35 SW16      30.25R
BELEN          FAIR      62  26  25 S3        30.19R
SOCORRO        FAIR      66  28  23 SE7       30.17S

$$
NMZ524>526-539-540-231700-
SOUTHCENTRAL MOUNTAINS

CITY           SKY/WX    TMP DP  RH WIND       PRES   REMARKS
RUIDOSO        FAIR      59  27  29 E5        30.27

$$
NMZ527>531-231700-
NORTHEAST HIGHLANDS/NORTHEAST PLAINS

CITY           SKY/WX    TMP DP  RH WIND       PRES   REMARKS
LAS VEGAS      FAIR      57  34  41 S17       30.20F
RATON          FAIR      50  40  68 VRB3      30.17F
CLAYTON        FAIR      55  42  61 S16G26    30.14F

$$
NMZ532>537-231700-
EASTCENTRAL PLAINS

CITY           SKY/WX    TMP DP  RH WIND       PRES   REMARKS
SANTA ROSA     FAIR      54  38  54 SW7       30.18F
TUCUMCARI      FAIR      57  40  52 VRB6      30.16F
CANNON AFB     FAIR      57  42  57 S8        30.21S
CLOVIS AIRPORT FAIR      58  39  49 S9        30.22R

$$
NMZ028-029-538-231700-
SOUTHEAST PLAINS

CITY           SKY/WX    TMP DP  RH WIND       PRES   REMARKS
ROSWELL        FAIR      62  36  37 S8        30.17F
ARTESIA        FAIR      63  37  39 S10       30.18F
CARLSBAD       FAIR      64  37  36 SE10      30.16F
HOBBS          SUNNY     63  36  36 SE9G16    30.20R


$$




USA.gov is the U.S. government's official web portal to all federal, state and local government web resources and services.